| time (UTC) | temp C | wind direction | speed KPH | gust KPH | rain 1hr cm | rain 24hr cm | rain mn cm | humidity % | barometer mb |
| 20260505200123 | 4 | 17 | 4.8 | 14.5 | 0.03 | 0.56 | 0.00 | 88 | 1014.3 |
| 20260505195619 | 4 | 23 | 4.8 | 11.3 | 0.03 | 0.53 | 0.00 | 88 | 1014.3 |
| 20260505195116 | 4 | 24 | 4.8 | 8.0 | 0.03 | 0.53 | 0.00 | 88 | 1014.3 |
| 20260505194613 | 4 | 37 | 3.2 | 9.7 | 0.03 | 0.53 | 0.00 | 88 | 1014.3 |
| 20260505194110 | 4 | 64 | 1.6 | 14.5 | 0.03 | 0.53 | 0.00 | 88 | 1014.3 |
| 20260505193606 | 4 | 12 | 4.8 | 14.5 | 0.03 | 0.53 | 0.00 | 88 | 1014.3 |
| 20260505193103 | 4 | 44 | 4.8 | 12.9 | 0.03 | 0.53 | 0.00 | 89 | 1014.2 |
| 20260505192600 | 3 | 51 | 3.2 | 14.5 | 0.03 | 0.53 | 0.00 | 88 | 1014.2 |
| 20260505192058 | 3 | 76 | 8.0 | 14.5 | 0.05 | 0.53 | 0.00 | 88 | 1014.2 |
| 20260505191555 | 3 | 59 | 3.2 | 14.5 | 0.05 | 0.53 | 0.00 | 88 | 1014.2 |
| 20260505191052 | 3 | 42 | 6.4 | 14.5 | 0.05 | 0.53 | 0.00 | 88 | 1014.2 |
| 20260505190549 | 3 | 38 | 4.8 | 17.7 | 0.05 | 0.53 | 0.00 | 88 | 1014.3 |
| 20260505190046 | 3 | 46 | 4.8 | 17.7 | 0.05 | 0.53 | 0.00 | 88 | 1014.4 |
| 20260505185542 | 3 | 50 | 1.6 | 17.7 | 0.03 | 0.51 | 0.00 | 88 | 1014.5 |
| 20260505185039 | 3 | 39 | 11.3 | 16.1 | 0.03 | 0.51 | 0.00 | 88 | 1014.5 |
| 20260505184536 | 3 | 5 | 3.2 | 8.0 | 0.03 | 0.51 | 0.00 | 89 | 1014.7 |
| 20260505184033 | 3 | 63 | 4.8 | 9.7 | 0.03 | 0.51 | 0.00 | 88 | 1014.8 |
| 20260505183530 | 3 | 46 | 1.6 | 11.3 | 0.03 | 0.51 | 0.00 | 88 | 1015.0 |
| 20260505183027 | 3 | 5 | 4.8 | 14.5 | 0.03 | 0.51 | 0.00 | 88 | 1015.2 |
| 20260505182524 | 3 | 17 | 3.2 | 16.1 | 0.03 | 0.51 | 0.00 | 88 | 1015.1 |
| 20260505182021 | 4 | 67 | 3.2 | 9.7 | 0.00 | 0.48 | 0.00 | 89 | 1015.1 |
| 20260505181518 | 4 | 43 | 1.6 | 12.9 | 0.00 | 0.48 | 0.00 | 89 | 1015.1 |
| 20260505181015 | 4 | 30 | 12.9 | 12.9 | 0.00 | 0.48 | 0.00 | 89 | 1015.1 |
| 20260505180512 | 3 | 17 | 4.8 | 12.9 | 0.00 | 0.48 | 0.00 | 89 | 1015.2 |
| 20260505180009 | 3 | 9 | 4.8 | 11.3 | 0.00 | 0.48 | 0.00 | 89 | 1015.3 |
| 20260505175505 | 3 | 33 | 4.8 | 11.3 | 0.00 | 0.48 | 0.00 | 89 | 1015.3 |
| 20260505175002 | 3 | 46 | 1.6 | 11.3 | 0.03 | 0.48 | 0.00 | 89 | 1015.4 |
| 20260505174459 | 3 | 38 | 3.2 | 11.3 | 0.03 | 0.48 | 0.00 | 89 | 1015.4 |
| 20260505173956 | 3 | 34 | 3.2 | 11.3 | 0.03 | 0.48 | 0.00 | 89 | 1015.5 |
| 20260505173452 | 3 | 22 | 4.8 | 11.3 | 0.03 | 0.48 | 0.00 | 89 | 1015.5 |
| 20260505172949 | 3 | 9 | 3.2 | 9.7 | 0.03 | 0.48 | 0.00 | 89 | 1015.6 |
| 20260505172446 | 3 | 28 | 3.2 | 9.7 | 0.03 | 0.48 | 0.00 | 89 | 1015.6 |
| 20260505171941 | 3 | 360 | 3.2 | 9.7 | 0.03 | 0.48 | 0.00 | 89 | 1015.6 |
| 20260505171441 | 3 | 48 | 3.2 | 9.7 | 0.03 | 0.48 | 0.00 | 89 | 1015.7 |
| 20260505170936 | 3 | 344 | 4.8 | 8.0 | 0.03 | 0.48 | 0.00 | 89 | 1015.6 |
| 20260505170436 | 3 | 9 | 1.6 | 8.0 | 0.03 | 0.48 | 0.00 | 89 | 1015.6 |
| 20260505165934 | 3 | 360 | 6.4 | 6.4 | 0.03 | 0.48 | 0.00 | 89 | 1015.7 |
| 20260505165431 | 3 | 58 | 6.4 | 6.4 | 0.03 | 0.48 | 0.00 | 89 | 1015.7 |
| 20260505164928 | 3 | 32 | 4.8 | 6.4 | 0.00 | 0.46 | 0.00 | 89 | 1015.7 |
| 20260505164425 | 3 | 347 | 0.0 | 4.8 | 0.00 | 0.46 | 0.00 | 89 | 1015.7 |
| 20260505163922 | 3 | 37 | 0.0 | 8.0 | 0.00 | 0.46 | 0.00 | 89 | 1015.8 |
| 20260505163418 | 3 | 38 | 6.4 | 8.0 | 0.00 | 0.46 | 0.00 | 89 | 1015.8 |
| 20260505162915 | 3 | 29 | 3.2 | 8.0 | 0.00 | 0.46 | 0.00 | 89 | 1015.8 |
| 20260505162413 | 3 | 13 | 3.2 | 6.4 | 0.00 | 0.46 | 0.00 | 89 | 1015.9 |
| 20260505161910 | 3 | 50 | 1.6 | 6.4 | 0.00 | 0.46 | 0.00 | 89 | 1015.9 |
| 20260505161407 | 3 | 337 | 4.8 | 8.0 | 0.00 | 0.46 | 0.00 | 89 | 1015.9 |
| 20260505160904 | 3 | 14 | 1.6 | 8.0 | 0.00 | 0.46 | 0.00 | 89 | 1015.9 |
| 20260505160401 | 3 | 352 | 0.0 | 12.9 | 0.00 | 0.46 | 0.00 | 89 | 1015.9 |
| 20260505153342 | 3 | 285 | 1.6 | 8.0 | 0.03 | 0.46 | 0.00 | 89 | 1016.2 |
| 20260505152838 | 3 | 29 | 1.6 | 8.0 | 0.03 | 0.46 | 0.00 | 89 | 1016.1 |
| 20260505152335 | 3 | 325 | 0.0 | 4.8 | 0.03 | 0.46 | 0.00 | 89 | 1016.2 |
| 20260505151831 | 3 | 345 | 3.2 | 4.8 | 0.03 | 0.46 | 0.00 | 89 | 1016.2 |
| 20260505151328 | 3 | 298 | 3.2 | 4.8 | 0.03 | 0.46 | 0.00 | 89 | 1016.2 |
| 20260505150825 | 2 | 352 | 0.0 | 8.0 | 0.03 | 0.46 | 0.00 | 89 | 1016.1 |
| 20260505150322 | 3 | 304 | 3.2 | 8.0 | 0.03 | 0.46 | 0.00 | 89 | 1016.2 |
| 20260505140243 | 2 | 304 | 1.6 | 12.9 | 0.05 | 0.43 | 0.00 | 89 | 1016.3 |
| 20260505130206 | 2 | 308 | 6.4 | 16.1 | 0.03 | 0.38 | 0.00 | 88 | 1015.6 |
| 20260505124656 | 2 | 315 | 6.4 | 16.1 | 0.03 | 0.38 | 0.00 | 88 | 1015.2 |
| 20260505124153 | 2 | 19 | 6.4 | 16.1 | 0.05 | 0.38 | 0.00 | 88 | 1015.2 |
| 20260505123649 | 2 | 352 | 9.7 | 19.3 | 0.05 | 0.38 | 0.00 | 88 | 1015.1 |
| 20260505123146 | 2 | 298 | 1.6 | 19.3 | 0.08 | 0.38 | 0.00 | 88 | 1015.0 |
| 20260505122643 | 2 | 34 | 3.2 | 14.5 | 0.13 | 0.38 | 0.00 | 88 | 1015.0 |
| 20260505122140 | 2 | 298 | 3.2 | 14.5 | 0.15 | 0.38 | 0.00 | 88 | 1015.1 |
| 20260505121637 | 2 | 312 | 4.8 | 14.5 | 0.18 | 0.38 | 0.00 | 87 | 1015.0 |
| 20260505121133 | 3 | 298 | 3.2 | 14.5 | 0.15 | 0.36 | 0.00 | 88 | 1015.0 |
| 20260505120630 | 3 | 312 | 3.2 | 20.9 | 0.15 | 0.36 | 0.00 | 87 | 1014.9 |
| 20260505120127 | 3 | 297 | 8.0 | 20.9 | 0.15 | 0.36 | 0.00 | 87 | 1014.8 |
| 20260505115623 | 3 | 351 | 6.4 | 17.7 | 0.15 | 0.36 | 0.00 | 87 | 1014.8 |
| 20260505115120 | 3 | 18 | 3.2 | 20.9 | 0.18 | 0.36 | 0.00 | 87 | 1014.8 |
| 20260505114616 | 3 | 314 | 9.7 | 20.9 | 0.15 | 0.33 | 0.00 | 87 | 1014.7 |
| 20260505114113 | 3 | 15 | 8.0 | 14.5 | 0.20 | 0.33 | 0.00 | 87 | 1014.6 |
| 20260505113610 | 3 | 42 | 9.7 | 20.9 | 0.20 | 0.33 | 0.00 | 87 | 1014.5 |
| 20260505113107 | 4 | 9 | 1.6 | 20.9 | 0.18 | 0.30 | 0.00 | 87 | 1014.5 |
| 20260505112603 | 4 | 22 | 9.7 | 20.9 | 0.15 | 0.25 | 0.00 | 87 | 1014.5 |
| 20260505112100 | 4 | 16 | 6.4 | 20.9 | 0.13 | 0.23 | 0.00 | 87 | 1014.4 |
| 20260505111557 | 4 | 314 | 8.0 | 24.1 | 0.10 | 0.20 | 0.00 | 87 | 1014.3 |
| 20260505111054 | 4 | 304 | 6.4 | 24.1 | 0.10 | 0.20 | 0.00 | 87 | 1014.2 |
| 20260505110550 | 4 | 17 | 6.4 | 19.3 | 0.13 | 0.20 | 0.00 | 87 | 1014.2 |
| 20260505102020 | 5 | 340 | 6.4 | 20.9 | 0.10 | 0.10 | 0.00 | 87 | 1013.3 |
| 20260505101517 | 5 | 317 | 6.4 | 19.3 | 0.10 | 0.10 | 0.00 | 87 | 1013.2 |
| 20260505101013 | 5 | 314 | 9.7 | 24.1 | 0.08 | 0.08 | 0.00 | 87 | 1013.1 |
| 20260505100510 | 6 | 297 | 12.9 | 24.1 | 0.08 | 0.08 | 0.00 | 87 | 1013.1 |
| 20260505100007 | 6 | 360 | 8.0 | 19.3 | 0.05 | 0.05 | 0.00 | 87 | 1012.9 |
| 20260505095504 | 6 | 207 | 3.2 | 19.3 | 0.03 | 0.03 | 0.00 | 87 | 1012.8 |
| 20260505095001 | 6 | 360 | 1.6 | 19.3 | 0.03 | 0.03 | 0.00 | 87 | 1012.8 |
| 20260505094457 | 6 | 323 | 8.0 | 19.3 | 0.00 | 0.00 | 0.00 | 87 | 1012.7 |
| 20260505093954 | 6 | 109 | 11.3 | 20.9 | 0.00 | 0.00 | 0.00 | 87 | 1012.6 |
| 20260505093451 | 6 | 323 | 6.4 | 19.3 | 0.00 | 0.00 | 0.00 | 87 | 1012.6 |
| 20260505092948 | 6 | 284 | 17.7 | 17.7 | 0.00 | 0.00 | 0.00 | 87 | 1012.6 |
| 20260505092444 | 6 | 317 | 9.7 | 24.1 | 0.00 | 0.00 | 0.00 | 87 | 1012.6 |
| 20260505091941 | 6 | 325 | 12.9 | 24.1 | 0.00 | 0.00 | 0.00 | 86 | 1012.6 |
| 20260505091436 | 6 | 280 | 12.9 | 19.3 | 0.00 | 0.00 | 0.00 | 86 | 1012.4 |
| 20260505090935 | 6 | 304 | 4.8 | 22.5 | 0.00 | 0.00 | 0.00 | 86 | 1012.3 |
| 20260505090432 | 7 | 280 | 6.4 | 22.5 | 0.00 | 0.00 | 0.00 | 85 | 1012.4 |
| 20260505085929 | 7 | 327 | 9.7 | 20.9 | 0.00 | 0.00 | 0.00 | 85 | 1012.4 |
| 20260505085425 | 7 | 323 | 8.0 | 17.7 | 0.00 | 0.00 | 0.00 | 85 | 1012.4 |
| 20260505084922 | 7 | 271 | 4.8 | 19.3 | 0.00 | 0.00 | 0.00 | 84 | 1012.4 |
| 20260505084419 | 7 | 271 | 9.7 | 22.5 | 0.00 | 0.00 | 0.00 | 84 | 1012.4 |
| 20260505083916 | 8 | 252 | 4.8 | 22.5 | 0.00 | 0.00 | 0.00 | 84 | 1012.4 |
| 20260505083413 | 8 | 262 | 4.8 | 19.3 | 0.00 | 0.00 | 0.00 | 84 | 1012.4 |
| 20260505082909 | 9 | 94 | 3.2 | 19.3 | 0.00 | 0.00 | 0.00 | 85 | 1012.4 |
| 20260505082406 | 9 | 68 | 1.6 | 8.0 | 0.00 | 0.00 | 0.00 | 85 | 1012.5 |
| 20260505081903 | 10 | 347 | 6.4 | 14.5 | 0.00 | 0.00 | 0.00 | 85 | 1012.5 |
| 20260505081400 | 10 | 360 | 8.0 | 9.7 | 0.00 | 0.00 | 0.00 | 85 | 1012.5 |
| 20260505080856 | 10 | 246 | 3.2 | 4.8 | 0.00 | 0.00 | 0.00 | 85 | 1012.6 |
| 20260505080353 | 9 | 317 | 1.6 | 4.8 | 0.00 | 0.00 | 0.00 | 85 | 1012.6 |
| 20260505075850 | 9 | 16 | 1.6 | 4.8 | 0.00 | 0.00 | 0.00 | 85 | 1012.4 |
| 20260505075347 | 9 | 344 | 1.6 | 4.8 | 0.00 | 0.00 | 0.00 | 85 | 1012.4 |
| 20260505074843 | 9 | 17 | 1.6 | 3.2 | 0.00 | 0.00 | 0.00 | 85 | 1012.4 |
| 20260505074340 | 9 | 94 | 0.0 | 3.2 | 0.00 | 0.00 | 0.00 | 85 | 1012.4 |
| 20260505073837 | 9 | 0 | 0.0 | 3.2 | 0.00 | 0.00 | 0.00 | 85 | 1012.5 |
| 20260505073334 | 9 | 170 | 0.0 | 3.2 | 0.00 | 0.00 | 0.00 | 85 | 1012.5 |
| 20260505072831 | 9 | 195 | 0.0 | 4.8 | 0.00 | 0.00 | 0.00 | 85 | 1012.6 |
| 20260505072327 | 9 | 173 | 1.6 | 6.4 | 0.00 | 0.00 | 0.00 | 85 | 1012.4 |
| 20260505071824 | 9 | 184 | 1.6 | 6.4 | 0.00 | 0.00 | 0.00 | 85 | 1012.5 |
| 20260505071320 | 9 | 207 | 3.2 | 6.4 | 0.00 | 0.00 | 0.00 | 85 | 1012.6 |
| 20260505070817 | 9 | 211 | 1.6 | 3.2 | 0.00 | 0.00 | 0.00 | 85 | 1012.6 |
| 20260505070314 | 9 | 192 | 1.6 | 6.4 | 0.00 | 0.00 | 0.00 | 85 | 1012.6 |
| 20260505065811 | 9 | 188 | 0.0 | 6.4 | 0.00 | 0.00 | 0.00 | 85 | 1012.6 |
| 20260505065308 | 9 | 187 | 3.2 | 6.4 | 0.00 | 0.00 | 0.00 | 85 | 1012.6 |
| 20260505064805 | 9 | 180 | 0.0 | 4.8 | 0.00 | 0.00 | 0.00 | 85 | 1012.6 |
| 20260505064301 | 9 | 205 | 3.2 | 4.8 | 0.00 | 0.00 | 0.00 | 85 | 1012.6 |
| 20260505063758 | 9 | 188 | 1.6 | 4.8 | 0.00 | 0.00 | 0.00 | 85 | 1012.5 |
| 20260505063255 | 9 | 197 | 1.6 | 3.2 | 0.00 | 0.00 | 0.00 | 85 | 1012.5 |
| 20260505062752 | 9 | 199 | 0.0 | 4.8 | 0.00 | 0.00 | 0.00 | 85 | 1012.6 |
| 20260505062248 | 9 | 190 | 0.0 | 4.8 | 0.00 | 0.00 | 0.00 | 85 | 1012.6 |
| 20260505061745 | 9 | 175 | 1.6 | 3.2 | 0.00 | 0.00 | 0.00 | 85 | 1012.6 |
| 20260505061242 | 9 | 0 | 0.0 | 3.2 | 0.00 | 0.00 | 0.00 | 85 | 1012.8 |
| 20260505060739 | 9 | 266 | 0.0 | 3.2 | 0.00 | 0.00 | 0.00 | 85 | 1012.9 |
| 20260505060235 | 9 | 260 | 0.0 | 3.2 | 0.03 | 0.00 | 0.00 | 85 | 1012.7 |
| 20260505055732 | 9 | 255 | 0.0 | 3.2 | 0.03 | 0.28 | 0.00 | 85 | 1012.8 |
| 20260505055229 | 9 | 229 | 3.2 | 4.8 | 0.03 | 0.28 | 0.00 | 85 | 1012.8 |
| 20260505054726 | 9 | 252 | 1.6 | 4.8 | 0.03 | 0.28 | 0.00 | 85 | 1012.9 |
| 20260505054222 | 9 | 230 | 3.2 | 3.2 | 0.03 | 0.28 | 0.00 | 84 | 1012.8 |
| 20260505053719 | 9 | 238 | 1.6 | 4.8 | 0.03 | 0.28 | 0.00 | 84 | 1012.6 |
| 20260505053216 | 9 | 225 | 3.2 | 4.8 | 0.03 | 0.28 | 0.00 | 84 | 1012.5 |
| 20260505052713 | 9 | 209 | 1.6 | 4.8 | 0.05 | 0.28 | 0.00 | 84 | 1012.4 |
| 20260505052210 | 9 | 213 | 3.2 | 4.8 | 0.05 | 0.28 | 0.00 | 84 | 1012.4 |
| 20260505051707 | 9 | 228 | 1.6 | 4.8 | 0.08 | 0.28 | 0.00 | 84 | 1012.5 |
| 20260505051203 | 9 | 0 | 0.0 | 4.8 | 0.08 | 0.28 | 0.00 | 84 | 1012.8 |
| 20260505050700 | 9 | 249 | 4.8 | 4.8 | 0.08 | 0.25 | 0.00 | 83 | 1013.0 |
| 20260505050157 | 10 | 256 | 1.6 | 3.2 | 0.10 | 0.25 | 0.00 | 83 | 1012.8 |
| 20260505041627 | 10 | 275 | 3.2 | 11.3 | 0.15 | 0.20 | 0.00 | 81 | 1013.3 |
| 20260505041124 | 10 | 259 | 4.8 | 6.4 | 0.18 | 0.20 | 0.00 | 81 | 1013.5 |
| 20260505040621 | 10 | 241 | 1.6 | 4.8 | 0.18 | 0.18 | 0.00 | 80 | 1013.3 |
| 20260505040118 | 10 | 263 | 3.2 | 6.4 | 0.15 | 0.15 | 0.00 | 80 | 1013.2 |
| 20260505035615 | 10 | 279 | 3.2 | 8.0 | 0.15 | 0.15 | 0.00 | 80 | 1013.2 |
| 20260505035112 | 10 | 254 | 1.6 | 11.3 | 0.13 | 0.13 | 0.00 | 80 | 1013.2 |
| 20260505034608 | 11 | 265 | 1.6 | 12.9 | 0.13 | 0.13 | 0.00 | 79 | 1013.2 |
| 20260505034105 | 11 | 245 | 3.2 | 12.9 | 0.13 | 0.13 | 0.00 | 78 | 1013.1 |
| 20260505033602 | 11 | 281 | 3.2 | 12.9 | 0.13 | 0.13 | 0.00 | 78 | 1013.4 |
| 20260505033059 | 11 | 250 | 3.2 | 12.9 | 0.13 | 0.13 | 0.00 | 76 | 1013.4 |
| 20260505032555 | 11 | 305 | 6.4 | 12.9 | 0.10 | 0.10 | 0.00 | 74 | 1013.3 |
| 20260505032052 | 11 | 304 | 1.6 | 11.3 | 0.08 | 0.08 | 0.00 | 72 | 1013.2 |
| 20260505031549 | 12 | 300 | 4.8 | 14.5 | 0.05 | 0.05 | 0.00 | 70 | 1013.0 |
| 20260505031046 | 12 | 298 | 6.4 | 16.1 | 0.00 | 0.00 | 0.00 | 68 | 1012.9 |
| 20260505030542 | 12 | 307 | 14.5 | 16.1 | 0.00 | 0.00 | 0.00 | 65 | 1012.8 |
| 20260505030040 | 12 | 347 | 6.4 | 16.1 | 0.00 | 0.00 | 0.00 | 63 | 1012.4 |
| 20260505025537 | 12 | 275 | 3.2 | 12.9 | 0.00 | 0.00 | 0.00 | 62 | 1012.1 |
| 20260505025032 | 12 | 336 | 3.2 | 8.0 | 0.00 | 0.00 | 0.00 | 62 | 1012.0 |
| 20260505024529 | 12 | 333 | 1.6 | 14.5 | 0.00 | 0.00 | 0.00 | 61 | 1011.8 |
| 20260505024026 | 12 | 311 | 4.8 | 14.5 | 0.00 | 0.00 | 0.00 | 59 | 1011.7 |
| 20260505023523 | 12 | 313 | 1.6 | 9.7 | 0.00 | 0.00 | 0.00 | 59 | 1011.6 |
| 20260505023020 | 12 | 250 | 3.2 | 12.9 | 0.00 | 0.00 | 0.00 | 59 | 1011.5 |
| 20260505022517 | 12 | 345 | 12.9 | 17.7 | 0.00 | 0.00 | 0.00 | 59 | 1011.4 |
| 20260505022014 | 13 | 32 | 6.4 | 17.7 | 0.00 | 0.00 | 0.00 | 59 | 1011.2 |
| 20260505021511 | 13 | 9 | 11.3 | 14.5 | 0.00 | 0.00 | 0.00 | 58 | 1011.4 |
| 20260505021008 | 13 | 17 | 1.6 | 20.9 | 0.00 | 0.00 | 0.00 | 57 | 1011.2 |
| 20260505020504 | 13 | 18 | 12.9 | 25.7 | 0.00 | 0.00 | 0.00 | 56 | 1011.3 |
| 20260505020001 | 14 | 338 | 4.8 | 25.7 | 0.00 | 0.00 | 0.00 | 53 | 1011.5 |
| 20260505015458 | 14 | 10 | 11.3 | 14.5 | 0.00 | 0.00 | 0.00 | 50 | 1011.3 |
| 20260505014954 | 14 | 12 | 4.8 | 6.4 | 0.00 | 0.00 | 0.00 | 49 | 1011.3 |
| 20260505014451 | 15 | 349 | 1.6 | 4.8 | 0.00 | 0.00 | 0.00 | 49 | 1011.2 |
| 20260505013947 | 15 | 342 | 1.6 | 4.8 | 0.00 | 0.00 | 0.00 | 51 | 1011.0 |
| 20260505013444 | 15 | 323 | 0.0 | 8.0 | 0.00 | 0.00 | 0.00 | 50 | 1011.0 |
| 20260505012941 | 15 | 315 | 3.2 | 8.0 | 0.00 | 0.00 | 0.00 | 50 | 1011.1 |
| 20260505012436 | 15 | 316 | 3.2 | 4.8 | 0.00 | 0.00 | 0.00 | 50 | 1011.1 |
| 20260505011936 | 15 | 0 | 0.0 | 3.2 | 0.00 | 0.00 | 0.00 | 50 | 1011.0 |
| 20260505011435 | 15 | 0 | 0.0 | 3.2 | 0.00 | 0.00 | 0.00 | 50 | 1011.0 |
| 20260505010935 | 15 | 0 | 0.0 | 6.4 | 0.00 | 0.00 | 0.00 | 52 | 1011.1 |
| 20260505010434 | 15 | 210 | 0.0 | 6.4 | 0.00 | 0.00 | 0.00 | 53 | 1011.2 |
| 20260505005931 | 15 | 226 | 0.0 | 11.3 | 0.00 | 0.00 | 0.00 | 52 | 1011.1 |
| 20260505005429 | 16 | 234 | 0.0 | 11.3 | 0.00 | 0.00 | 0.00 | 51 | 1011.0 |
| 20260505004925 | 16 | 242 | 3.2 | 14.5 | 0.00 | 0.00 | 0.00 | 48 | 1010.9 |
| 20260505004422 | 16 | 271 | 1.6 | 14.5 | 0.00 | 0.00 | 0.00 | 41 | 1011.0 |
| 20260505003918 | 16 | 257 | 4.8 | 12.9 | 0.00 | 0.00 | 0.00 | 39 | 1011.0 |
| 20260505003415 | 16 | 277 | 4.8 | 12.9 | 0.00 | 0.00 | 0.00 | 39 | 1011.0 |
| 20260505002912 | 16 | 324 | 12.9 | 12.9 | 0.00 | 0.00 | 0.00 | 38 | 1010.9 |
| 20260505002408 | 16 | 285 | 1.6 | 8.0 | 0.00 | 0.00 | 0.00 | 38 | 1010.9 |
| 20260505001905 | 16 | 26 | 3.2 | 11.3 | 0.00 | 0.00 | 0.00 | 38 | 1010.7 |
| 20260505001402 | 16 | 314 | 1.6 | 11.3 | 0.00 | 0.00 | 0.00 | 38 | 1010.6 |
| 20260505000858 | 16 | 319 | 4.8 | 16.1 | 0.00 | 0.00 | 0.00 | 38 | 1010.5 |
| 20260505000355 | 16 | 309 | 8.0 | 16.1 | 0.00 | 0.00 | 0.00 | 38 | 1010.3 |
| 20260504235852 | 17 | 309 | 3.2 | 16.1 | 0.00 | 0.00 | 0.00 | 38 | 1010.3 |
| 20260504235349 | 17 | 307 | 14.5 | 16.1 | 0.00 | 0.00 | 0.00 | 38 | 1010.2 |
| 20260504234846 | 17 | 331 | 4.8 | 16.1 | 0.00 | 0.00 | 0.00 | 37 | 1010.2 |
| 20260504234343 | 17 | 311 | 14.5 | 17.7 | 0.00 | 0.00 | 0.00 | 37 | 1009.9 |
| 20260504233839 | 17 | 306 | 11.3 | 17.7 | 0.00 | 0.00 | 0.00 | 37 | 1009.9 |
| 20260504233336 | 17 | 360 | 12.9 | 19.3 | 0.00 | 0.00 | 0.00 | 36 | 1010.0 |
| 20260504232833 | 17 | 320 | 12.9 | 19.3 | 0.00 | 0.00 | 0.00 | 35 | 1009.8 |
| 20260504232329 | 17 | 323 | 8.0 | 17.7 | 0.00 | 0.00 | 0.00 | 35 | 1009.7 |
| 20260504231826 | 17 | 347 | 8.0 | 24.1 | 0.00 | 0.00 | 0.00 | 35 | 1009.7 |
| 20260504231322 | 17 | 252 | 12.9 | 24.1 | 0.00 | 0.00 | 0.00 | 35 | 1009.7 |
| 20260504230819 | 17 | 157 | 4.8 | 20.9 | 0.00 | 0.00 | 0.00 | 35 | 1009.7 |
| 20260504230316 | 17 | 286 | 4.8 | 22.5 | 0.00 | 0.00 | 0.00 | 35 | 1009.7 |
| 20260504225813 | 17 | 345 | 9.7 | 25.7 | 0.00 | 0.00 | 0.00 | 34 | 1009.6 |
| 20260504225310 | 17 | 298 | 8.0 | 27.4 | 0.00 | 0.00 | 0.00 | 35 | 1009.8 |
| 20260504224807 | 18 | 328 | 9.7 | 22.5 | 0.00 | 0.00 | 0.00 | 34 | 1009.7 |
| 20260504224304 | 18 | 313 | 16.1 | 22.5 | 0.00 | 0.00 | 0.00 | 34 | 1009.8 |
| 20260504223800 | 18 | 342 | 4.8 | 19.3 | 0.00 | 0.00 | 0.00 | 33 | 1009.8 |
| 20260504223257 | 18 | 276 | 6.4 | 19.3 | 0.00 | 0.00 | 0.00 | 32 | 1009.7 |
| 20260504222754 | 18 | 302 | 4.8 | 20.9 | 0.00 | 0.00 | 0.00 | 33 | 1009.7 |
| 20260504222251 | 18 | 305 | 11.3 | 24.1 | 0.00 | 0.00 | 0.00 | 32 | 1009.7 |
| 20260504221748 | 18 | 348 | 16.1 | 22.5 | 0.00 | 0.00 | 0.00 | 31 | 1009.6 |
| 20260504221245 | 18 | 46 | 8.0 | 22.5 | 0.00 | 0.00 | 0.00 | 31 | 1009.5 |
| 20260504220741 | 18 | 313 | 17.7 | 29.0 | 0.00 | 0.00 | 0.00 | 30 | 1009.3 |
| 20260504220240 | 18 | 302 | 4.8 | 29.0 | 0.00 | 0.00 | 0.00 | 31 | 1009.0 |
| 20260504215737 | 18 | 338 | 8.0 | 22.5 | 0.00 | 0.00 | 0.00 | 31 | 1008.8 |
| 20260504215234 | 18 | 327 | 6.4 | 30.6 | 0.00 | 0.00 | 0.00 | 30 | 1008.7 |
| 20260504214731 | 18 | 305 | 4.8 | 30.6 | 0.00 | 0.00 | 0.00 | 31 | 1008.4 |
| 20260504214227 | 18 | 39 | 3.2 | 27.4 | 0.00 | 0.00 | 0.00 | 31 | 1008.6 |
| 20260504213724 | 18 | 31 | 9.7 | 30.6 | 0.00 | 0.00 | 0.00 | 30 | 1008.5 |
| 20260504213221 | 19 | 352 | 12.9 | 30.6 | 0.00 | 0.00 | 0.00 | 28 | 1008.7 |
| 20260504212720 | 20 | 51 | 11.3 | 29.0 | 0.00 | 0.00 | 0.00 | 25 | 1008.8 |
| 20260504212217 | 20 | 64 | 12.9 | 20.9 | 0.00 | 0.00 | 0.00 | 24 | 1008.6 |
| 20260504211713 | 20 | 61 | 14.5 | 17.7 | 0.00 | 0.00 | 0.00 | 24 | 1008.7 |
| 20260504211210 | 20 | 57 | 4.8 | 16.1 | 0.00 | 0.00 | 0.00 | 23 | 1008.7 |
| 20260504210707 | 20 | 259 | 0.0 | 16.1 | 0.00 | 0.00 | 0.00 | 23 | 1008.7 |
| 20260504210204 | 20 | 66 | 8.0 | 17.7 | 0.00 | 0.00 | 0.00 | 24 | 1008.7 |
| 20260504205701 | 20 | 64 | 14.5 | 17.7 | 0.00 | 0.00 | 0.00 | 22 | 1008.7 |
| 20260504205157 | 19 | 26 | 1.6 | 20.9 | 0.00 | 0.00 | 0.00 | 23 | 1008.9 |
| 20260504204654 | 19 | 31 | 3.2 | 20.9 | 0.00 | 0.00 | 0.00 | 25 | 1008.9 |
| 20260504204150 | 19 | 72 | 17.7 | 20.9 | 0.00 | 0.00 | 0.00 | 25 | 1009.3 |
| 20260504203647 | 18 | 338 | 1.6 | 20.9 | 0.00 | 0.00 | 0.00 | 26 | 1009.4 |
| 20260504203144 | 18 | 42 | 0.0 | 32.2 | 0.00 | 0.00 | 0.00 | 27 | 1009.6 |
| 20260504202641 | 19 | 173 | 19.3 | 32.2 | 0.00 | 0.00 | 0.00 | 26 | 1009.7 |
| 20260504202138 | 19 | 269 | 3.2 | 20.9 | 0.00 | 0.00 | 0.00 | 25 | 1009.7 |
| 20260504201635 | 18 | 9 | 1.6 | 20.9 | 0.00 | 0.00 | 0.00 | 25 | 1009.8 |
| 20260504201131 | 18 | 29 | 4.8 | 20.9 | 0.00 | 0.00 | 0.00 | 26 | 1009.8 |
| 20260504200628 | 18 | 134 | 4.8 | 27.4 | 0.00 | 0.00 | 0.00 | 27 | 1010.1 |